Location: Unspecified
(0.0000°N, 0.0000°E)
Time: 11:58:49
(UTC+00:00)

Vanguard 2 Rocket - Pass Details

Date: 10 December 2017
Orbit: 553 x 3328 km, 32.9° (Epoch: 24 June)

Event Time Altitude Azimuth Distance (km) Brightness Sun altitude
Exits shadow 01:16:29 17° 57° (ENE) 4,791 10.5 -59.3°
Drops below altitude 10° 01:19:39 10° 68° (ENE) 5,084 10.7 -58.8°
Sets 01:24:03 0° 81° (E) 5,684 11.2 -58.1°
